• In Netherlands
  • List of Countries
  • For 7 days
  • Water Temperature
  • Satellite Maps
  • Weather Map
  • Weather Widgets
  • user-avatar
    Login

    Hourly Weather San Luis

    Today, 1 May, Monday

    Time Temperature Precipitation Wind Pressure Humidity
    00:00 +16°C° 0 mm 7 mps 699 mmHg 43%
    01:00 +16°C° 0 mm 7 mps 699 mmHg 44%
    02:00 +16°C° 0 mm 7 mps 699 mmHg 45%
    03:00 +16°C° 0 mm 7 mps 699 mmHg 45%
    04:00 +16°C° 0 mm 7 mps 699 mmHg 46%
    05:00 +15°C° 0 mm 7 mps 699 mmHg 46%
    06:00 +16°C° 0 mm 7 mps 699 mmHg 46%
    07:00 +16°C° 0 mm 7 mps 699 mmHg 46%
    08:00 +16°C° 0 mm 6 mps 699 mmHg 47%
    09:00 +18°C° 0 mm 7 mps 699 mmHg 43%
    10:00 +21°C° 0 mm 7 mps 700 mmHg 40%
    11:00 +23°C° 0 mm 8 mps 700 mmHg 36%
    12:00 +24°C° 0 mm 8 mps 699 mmHg 35%
    13:00 +26°C° 0 mm 7 mps 699 mmHg 34%
    14:00 +26°C° 0 mm 7 mps 698 mmHg 33%
    15:00 +24°C° 0 mm 7 mps 698 mmHg 36%
    16:00 +23°C° 0 mm 6 mps 697 mmHg 40%
    17:00 +22°C° 0 mm 5 mps 697 mmHg 43%
    18:00 +21°C° 0 mm 5 mps 697 mmHg 48%
    19:00 +20°C° 0 mm 5 mps 697 mmHg 52%
    20:00 +17°C° 0 mm 5 mps 696 mmHg 57%
    21:00 +17°C° 0 mm 6 mps 696 mmHg 56%
    22:00 +17°C° 0 mm 7 mps 696 mmHg 55%
    23:00 +17°C° 0 mm 8 mps 696 mmHg 54%

    Tomorrow, 2 May, Tuesday

    Time Temperature Precipitation Wind Pressure Humidity
    00:00 +17°C° 0 mm 8 mps 696 mmHg 55%
    01:00 +17°C° 0 mm 8 mps 696 mmHg 55%
    02:00 +16°C° 0 mm 8 mps 696 mmHg 56%
    03:00 +16°C° 0 mm 8 mps 695 mmHg 59%
    04:00 +16°C° 0 mm 7 mps 695 mmHg 62%
    05:00 +15°C° 0 mm 7 mps 695 mmHg 65%
    06:00 +16°C° 0 mm 7 mps 695 mmHg 67%
    07:00 +16°C° 0 mm 6 mps 695 mmHg 68%
    08:00 +16°C° 0 mm 6 mps 695 mmHg 70%
    09:00 +19°C° 0 mm 6 mps 696 mmHg 62%
    10:00 +21°C° 0 mm 7 mps 696 mmHg 55%
    11:00 +23°C° 0 mm 7 mps 697 mmHg 47%
    12:00 +24°C° 0 mm 6 mps 696 mmHg 45%
    13:00 +26°C° 0 mm 6 mps 696 mmHg 43%
    14:00 +26°C° 0 mm 5 mps 696 mmHg 41%
    15:00 +26°C° 0 mm 4 mps 696 mmHg 45%
    16:00 +25°C° 0 mm 3 mps 696 mmHg 48%
    17:00 +24°C° 0 mm 2 mps 696 mmHg 52%
    18:00 +23°C° 0 mm 2 mps 697 mmHg 56%
    19:00 +20°C° 0 mm 2 mps 698 mmHg 61%
    20:00 +19°C° 0 mm 2 mps 698 mmHg 66%
    21:00 +18°C° 0.1 mm 2 mps 699 mmHg 68%
    22:00 +18°C° 0.1 mm 2 mps 700 mmHg 71%
    23:00 +17°C° 0.1 mm 2 mps 700 mmHg 74%

    Day after tomorrow, 3 May, Wednesday

    Time Temperature Precipitation Wind Pressure Humidity
    00:00 +17°C° 0 mm 2 mps 701 mmHg 77%
    01:00 +16°C° 0 mm 2 mps 701 mmHg 79%
    02:00 +16°C° 0 mm 2 mps 701 mmHg 82%
    03:00 +15°C° 0 mm 2 mps 701 mmHg 84%
    04:00 +15°C° 0 mm 2 mps 701 mmHg 86%
    05:00 +14°C° 0 mm 3 mps 701 mmHg 88%
    06:00 +14°C° 0 mm 3 mps 702 mmHg 88%
    07:00 +14°C° 0 mm 3 mps 703 mmHg 87%
    08:00 +16°C° 0 mm 3 mps 703 mmHg 87%
    09:00 +17°C° 0 mm 3 mps 703 mmHg 79%
    10:00 +19°C° 0 mm 3 mps 704 mmHg 72%
    11:00 +20°C° 0 mm 3 mps 704 mmHg 64%
    12:00 +21°C° 0 mm 3 mps 703 mmHg 59%
    13:00 +22°C° 0 mm 3 mps 702 mmHg 55%
    14:00 +24°C° 0 mm 3 mps 702 mmHg 50%
    15:00 +24°C° 0 mm 3 mps 701 mmHg 52%
    16:00 +22°C° 0 mm 3 mps 700 mmHg 53%
    17:00 +22°C° 0 mm 3 mps 700 mmHg 55%
    18:00 +20°C° 0 mm 3 mps 700 mmHg 60%
    19:00 +19°C° 0 mm 3 mps 699 mmHg 65%
    20:00 +18°C° 0 mm 4 mps 699 mmHg 70%
    21:00 +17°C° 0 mm 3 mps 699 mmHg 71%
    22:00 +17°C° 0 mm 3 mps 698 mmHg 71%
    23:00 +17°C° 0 mm 3 mps 698 mmHg 72%

    4 May, Thursday

    Time Temperature Precipitation Wind Pressure Humidity
    00:00 +17°C° 0 mm 3 mps 698 mmHg 71%
    01:00 +15°C° 0 mm 4 mps 697 mmHg 70%
    02:00 +15°C° 0 mm 4 mps 697 mmHg 69%
    03:00 +15°C° 0 mm 4 mps 696 mmHg 73%
    04:00 +15°C° 0 mm 5 mps 696 mmHg 76%
    05:00 +15°C° 0 mm 5 mps 696 mmHg 80%
    06:00 +15°C° 0 mm 5 mps 696 mmHg 81%
    07:00 +15°C° 0 mm 5 mps 696 mmHg 81%
    08:00 +17°C° 0 mm 4 mps 697 mmHg 82%
    09:00 +19°C° 0 mm 4 mps 697 mmHg 74%
    10:00 +21°C° 0 mm 5 mps 698 mmHg 65%
    11:00 +23°C° 0 mm 5 mps 698 mmHg 57%
    12:00 +23°C° 0 mm 4 mps 698 mmHg 54%
    13:00 +23°C° 0 mm 4 mps 697 mmHg 52%
    14:00 +25°C° 0 mm 3 mps 697 mmHg 49%
    15:00 +24°C° 0 mm 3 mps 697 mmHg 52%
    16:00 +24°C° 0 mm 2 mps 697 mmHg 54%
    17:00 +23°C° 0 mm 2 mps 697 mmHg 56%
    18:00 +21°C° 0 mm 2 mps 697 mmHg 61%
    19:00 +20°C° 0 mm 2 mps 697 mmHg 67%
    20:00 +18°C° 0 mm 2 mps 697 mmHg 72%
    21:00 +18°C° 0 mm 2 mps 697 mmHg 74%
    22:00 +17°C° 0 mm 2 mps 697 mmHg 76%
    23:00 +17°C° 0 mm 2 mps 698 mmHg 78%

    5 May, Friday

    Time Temperature Precipitation Wind Pressure Humidity
    00:00 +17°C° 0 mm 2 mps 698 mmHg 79%
    01:00 +16°C° 0 mm 2 mps 698 mmHg 80%
    02:00 +16°C° 0 mm 2 mps 698 mmHg 81%
    03:00 +16°C° 0 mm 2 mps 698 mmHg 82%
    04:00 +16°C° 0 mm 3 mps 698 mmHg 83%
    05:00 +16°C° 0 mm 3 mps 698 mmHg 84%
    06:00 +16°C° 0 mm 3 mps 698 mmHg 82%
    07:00 +16°C° 0 mm 3 mps 699 mmHg 80%
    08:00 +17°C° 0 mm 3 mps 699 mmHg 78%
    09:00 +19°C° 0 mm 3 mps 699 mmHg 68%
    10:00 +21°C° 0 mm 4 mps 700 mmHg 58%
    11:00 +25°C° 0 mm 4 mps 700 mmHg 47%
    12:00 +26°C° 0 mm 4 mps 700 mmHg 44%
    13:00 +26°C° 0 mm 5 mps 699 mmHg 41%
    14:00 +27°C° 0 mm 5 mps 698 mmHg 37%
    15:00 +26°C° 0 mm 5 mps 698 mmHg 41%
    16:00 +26°C° 0 mm 5 mps 697 mmHg 45%
    17:00 +25°C° 0 mm 4 mps 697 mmHg 49%
    18:00 +22°C° 0 mm 4 mps 697 mmHg 55%
    19:00 +21°C° 0 mm 4 mps 697 mmHg 62%
    20:00 +19°C° 0 mm 4 mps 697 mmHg 69%
    21:00 +19°C° 0 mm 5 mps 696 mmHg 70%
    22:00 +19°C° 0 mm 6 mps 696 mmHg 71%
    23:00 +18°C° 0 mm 7 mps 696 mmHg 73%

    6 May, Saturday

    Time Temperature Precipitation Wind Pressure Humidity
    00:00 +18°C° 0 mm 7 mps 696 mmHg 74%
    01:00 +18°C° 0 mm 8 mps 695 mmHg 75%
    02:00 +17°C° 0 mm 8 mps 695 mmHg 77%
    03:00 +17°C° 0 mm 8 mps 694 mmHg 77%
    04:00 +17°C° 0 mm 9 mps 694 mmHg 78%
    05:00 +17°C° 0 mm 9 mps 694 mmHg 78%
    06:00 +17°C° 0 mm 9 mps 694 mmHg 77%
    07:00 +18°C° 0 mm 9 mps 694 mmHg 77%
    08:00 +18°C° 0 mm 9 mps 694 mmHg 76%
    09:00 +19°C° 0 mm 10 mps 694 mmHg 70%
    10:00 +22°C° 0 mm 10 mps 694 mmHg 65%
    11:00 +23°C° 0 mm 11 mps 694 mmHg 59%
    12:00 +24°C° 0 mm 10 mps 694 mmHg 57%
    13:00 +24°C° 0 mm 10 mps 694 mmHg 56%
    14:00 +26°C° 0 mm 9 mps 693 mmHg 54%
    15:00 +24°C° 0 mm 8 mps 693 mmHg 58%
    16:00 +23°C° 0 mm 6 mps 693 mmHg 61%
    17:00 +22°C° 0 mm 5 mps 694 mmHg 64%
    18:00 +21°C° 0 mm 4 mps 694 mmHg 69%
    19:00 +20°C° 0 mm 4 mps 694 mmHg 74%
    20:00 +19°C° 0 mm 3 mps 695 mmHg 80%
    21:00 +19°C° 0 mm 3 mps 695 mmHg 81%
    22:00 +19°C° 0 mm 4 mps 696 mmHg 82%
    23:00 +18°C° 0 mm 4 mps 696 mmHg 84%
    Show more